Starlink 11163

operational
NORAD ID: 60047 Int'l Des: 2024-112 Owner: SPXS Country: US Constellation: starlink
LEOCIRCULAR

Über Starlink 11163

Beschreibung wird geladen...

Live-Position

3D-Globus wird geladen...

Nächste Überflüge

Höhenverlauf

Altitude vs Time

uPlot chart will show altitude changes over time

Zweizeiliger Elementsatz

1 60047U 24112K 25260.63756878 .00001019 00000-0 13265-4 0 9994
2 60047 53.1591 39.1768 0001472 83.0874 277.0311 15.69730693 73809
Epoch: 17. Sept. 2025 • Age: 23 hours

Aktueller Status

Höhe 364.9 km
Geschwindigkeit 7.70 km/s
Subsatellitenpunkt 51.74°N, 110.81°W
Startdatum 8. Juni 2024
Alter 1.2 years
Typ internet

Technische Details

Klassifizierung Payload
Masse 960.00 kg
Trockenmasse 910.00 kg
Gesamtmasse 960.00 kg
Länge 0.30 m
Durchmesser 4.10 m
Spannweite 29.00 m
Form Box + pan
Hersteller SPXS
Bus-Typ Starlink V2MD
Phasenstatus In Orbit
Besitzer/Staat SPXS/US

Große Konstellationen

Loading constellations...